User: anonymous   Login
Location: Unspecified
(0.0000°N, 0.0000°E)
Time: 23:01:20
(UTC+00:00)
Language:

STARLINK-30111 - Orbit

View from above orbital plane
View from above orbital plane
View from above satellite
View from above satellite

Ground track
Ground track

The orbit is defined by the following mean orbital elements,

1 56302U          26145.45744366 +.00000000 +00000-0 +19944-3 0 00006
2 56302  42.9995 135.0417 0000471 204.6405 155.4425 15.27602463    02
Epoch (UTC): 25 May 2026 10:58:43
Eccentricity: 0.0000471
inclination: 42.9995°
perigee height: 483 km
apogee height: 483 km
right ascension of ascending node: 135.0417°
argument of perigee: 204.6405°
revolutions per day: 15.27602463
mean anomaly at epoch: 155.4425°

The dashed part of the orbit path shows where the satellite is in the earth's shadow,  

DLR